Address 0xc19c4cf0692a2534f08481fb26c861b111c93a82 11

Txn Hash Method
Block
From
To
Value [Txn Fee]
0xe4864010f0f4059683f0f49e2862a4538eb768d7331c294a9ec93771811d280e0x6549920d139713562022-09-26 3:24:221 day 22 hrs ago0xc19c4cf0692a2534f08481fb26c861b111c93a82OUT0x2e1d0c56c6913fd6135f887080f7a14123a142a80 AVAX0.064629100
0xabd7b7ccc69d24e5ad3381e399c276038431fb21fa22e521ddfe35815fa983ad0xbef1e500139697882022-09-26 2:56:131 day 23 hrs ago0xc19c4cf0692a2534f08481fb26c861b111c93a82OUT0x2e1d0c56c6913fd6135f887080f7a14123a142a80 AVAX0.026724100
0xfb78f8b671d3110df2b8228750cf2d5c719d31b0b15c0620bc1b5ef8794528260x6549920d139689862022-09-26 2:42:081 day 23 hrs ago0xc19c4cf0692a2534f08481fb26c861b111c93a82OUT0x2e1d0c56c6913fd6135f887080f7a14123a142a80 AVAX0.0638322100
0x3167935a54476aec837bb19cdcaa7bf9bfd0bedf4393847d4ce946f7f157f0130xbef1e500139676412022-09-26 2:18:342 days 2 mins ago0xc19c4cf0692a2534f08481fb26c861b111c93a82OUT0x2e1d0c56c6913fd6135f887080f7a14123a142a80 AVAX0.026724100
0xdbe5e8bb498f93d17c98abc0e944997d26f7910309392f771ad7cc26bf98626a0x6549920d139664992022-09-26 1:58:442 days 22 mins ago0xc19c4cf0692a2534f08481fb26c861b111c93a82OUT0x2e1d0c56c6913fd6135f887080f7a14123a142a80 AVAX0.0649219100
0x42165619d852d630a7184ad741f05863061e72dbdc34300eabd50c4509b89e5c0xbef1e500139654422022-09-26 1:40:252 days 41 mins ago0xc19c4cf0692a2534f08481fb26c861b111c93a82OUT0x2e1d0c56c6913fd6135f887080f7a14123a142a80 AVAX0.028434100
0xed6622a68bff38eb292391af61456a099bac7f3c4a37547c61d47130d6712f330x6549920d139640342022-09-26 1:15:412 days 1 hr ago0xc19c4cf0692a2534f08481fb26c861b111c93a82OUT0x2e1d0c56c6913fd6135f887080f7a14123a142a80 AVAX0.066339100
0x41b6eb9e4900d64bf647c212a29bb5e8dde016546e4238b2220200ba0a23b7f60x6549920d139617752022-09-26 0:33:112 days 1 hr ago0xc19c4cf0692a2534f08481fb26c861b111c93a82OUT0x2e1d0c56c6913fd6135f887080f7a14123a142a80 AVAX0.0655422100
0x21c5ea4306ca9a39291efba55fc3067f1a2b86de4f3b7ea87ab6425abbb377690x6549920d139594992022-09-25 23:51:472 days 2 hrs ago0xc19c4cf0692a2534f08481fb26c861b111c93a82OUT0x2e1d0c56c6913fd6135f887080f7a14123a142a80 AVAX0.0649219100
0x893e121e0de4e01018cc3f662218888435dc3af175ab21e7688c3a07a7f109060x6549920d139572022022-09-25 23:08:442 days 3 hrs ago0xc19c4cf0692a2534f08481fb26c861b111c93a82OUT0x2e1d0c56c6913fd6135f887080f7a14123a142a80 AVAX0.068049100
0xb0094cf74090eed2e0c1fc453390cdab72b54f23d02024cf992afd09ab0e08780x6549920d139548922022-09-25 22:25:402 days 3 hrs ago0xc19c4cf0692a2534f08481fb26c861b111c93a82OUT0x2e1d0c56c6913fd6135f887080f7a14123a142a80 AVAX0.0655422100
0x086a8a40777fc493d005b709fa02f2d888570d0efffbc2a9ddf9868d0161e0710x6549920d139525742022-09-25 21:42:502 days 4 hrs ago0xc19c4cf0692a2534f08481fb26c861b111c93a82OUT0x2e1d0c56c6913fd6135f887080f7a14123a142a80 AVAX0.0649219100
0xc01c1641f685c071f89ce27a1a8142a90d3535a9f840a77f2035db1501adb3e50x6549920d139502542022-09-25 20:59:262 days 5 hrs ago0xc19c4cf0692a2534f08481fb26c861b111c93a82OUT0x2e1d0c56c6913fd6135f887080f7a14123a142a80 AVAX0.068049100
0xeeadf068b8b75b5843cb90545e4dc7717dd3b79f9e04dcadb522cd63e014509c0x6549920d139478722022-09-25 20:14:382 days 6 hrs ago0xc19c4cf0692a2534f08481fb26c861b111c93a82OUT0x2e1d0c56c6913fd6135f887080f7a14123a142a80 AVAX0.0655422100
0x7fc16b6a20aec3e6a689b68a92873053618cedc6ef7949726e752639592657a3Harvest139463932022-09-25 19:46:542 days 6 hrs ago0xc19c4cf0692a2534f08481fb26c861b111c93a82OUT0x951accccfdf619d3cd8cfe0e4823d8e80354eb410 AVAX0.0081923100
0x445ee96696940018a700583f9f38dd88e2e6423f089a6f239af3bb43aa01144e0x6549920d139455292022-09-25 19:30:582 days 6 hrs ago0xc19c4cf0692a2534f08481fb26c861b111c93a82OUT0x2e1d0c56c6913fd6135f887080f7a14123a142a80 AVAX0.0649219100
0x63013515e26d8ba6e7eed5e00cf2942ae6bdbfe7daf930379e6dd796e94f48fcHarvest139442032022-09-25 19:06:182 days 7 hrs ago0xc19c4cf0692a2534f08481fb26c861b111c93a82OUT0x951accccfdf619d3cd8cfe0e4823d8e80354eb410 AVAX0.0081923100
0x156de37c0d5ef92d1fbe731c24e287befbf6a33d48b7e969f7da8009a371b38d0x6549920d139431112022-09-25 18:44:512 days 7 hrs ago0xc19c4cf0692a2534f08481fb26c861b111c93a82OUT0x2e1d0c56c6913fd6135f887080f7a14123a142a80 AVAX0.068049100
0xe4c506ccd1db96242b1d813f54780303e7a7f229ca83d2296dfa86933601e5cdHarvest139419932022-09-25 18:23:502 days 7 hrs ago0xc19c4cf0692a2534f08481fb26c861b111c93a82OUT0x951accccfdf619d3cd8cfe0e4823d8e80354eb410 AVAX0.00647100
0x6f4985682a07f097d8a8a01891e8bd896278468f7bc3975947b9d1c9233ba6b10x6549920d139407262022-09-25 17:58:432 days 8 hrs ago0xc19c4cf0692a2534f08481fb26c861b111c93a82OUT0x2e1d0c56c6913fd6135f887080f7a14123a142a80 AVAX0.0672522100
0xd50c03951e49e329983194baeab46bf70c8b540798fe232ad892623b0dc7b906Harvest139397952022-09-25 17:40:162 days 8 hrs ago0xc19c4cf0692a2534f08481fb26c861b111c93a82OUT0x951accccfdf619d3cd8cfe0e4823d8e80354eb410 AVAX0.0081923100
0x9f98d53602dfdbfcea44ca2192935b8c24998f1c91538873c6d52070503997480x6549920d139382732022-09-25 17:10:452 days 9 hrs ago0xc19c4cf0692a2534f08481fb26c861b111c93a82OUT0x2e1d0c56c6913fd6135f887080f7a14123a142a80 AVAX0.0666319100
0xc876f14082356f244c4a02c831fd414503dc20c7aee5b8ad2f65343ef2e4e5fbHarvest139374872022-09-25 16:55:052 days 9 hrs ago0xc19c4cf0692a2534f08481fb26c861b111c93a82OUT0x951accccfdf619d3cd8cfe0e4823d8e80354eb410 AVAX0.00647100
0x6cf512839eb15c1f05274653e06a6f9da081493b0f891c6bbe58ca04f4b2453f0x4ea4c6b3139363412022-09-25 16:24:512 days 9 hrs ago0xc19c4cf0692a2534f08481fb26c861b111c93a82OUT0x2e1d0c56c6913fd6135f887080f7a14123a142a80 AVAX0.0212157100
0xdf3ee329026f0821075d259887c32d74ab2da019c3017f02b0bf136d5951dd5d0xab07211e139358142022-09-25 16:07:182 days 10 hrs ago0xc19c4cf0692a2534f08481fb26c861b111c93a82OUT0x2e1d0c56c6913fd6135f887080f7a14123a142a80 AVAX0.0225895100
[ Download CSV Export 
Parent Txn Hash Block From To Value
Loading

Contract Name:
0

Compiler Version
0

Optimization Enabled:
0

Other Settings:
-NA-
Block Transaction Gas Used Reward
Age Block Fee Address BC Fee Address Voting Power Jailed Incoming
Block Uncle Number Difficulty Gas Used Reward
Loading